BSAT-3A

Last updated on Jan. 26, 2020, 4:40 a.m. UTC

1 32019U 07036B   20025.61153939 -.00000358  00000-0  00000-0 0  9994
2 32019   0.0563 236.8041 0002068  45.7795 171.7612  1.00270246 27105
UTC
Height (km)
Latitude
Longitude
Inclination
Orbital Period
UTC large
Height (km)
Speed (km/s)
/
Latitude / Longitude
Inclination (degrees)
Orbital Period (minutes)
Azimuth
Elevation
Range (km)
Doppler Factor
iOS Compass Heading
iOS Angle

Next 30 passes for location: Hong Kong

Rise time Rise Azimuth (degrees) Set time Set Azimuth (degrees) Duration Max altitude (degrees)

No matching passes for this satellites